Weather History for Iowa City, IA

Change the Weather History Date:

Sunday, November 10, 2013

  Actual Average Record
Temperature  
Mean Temperature 37 °F 42 °F  
Max Temperature 46 °F 51 °F 72 °F (2012)
Min Temperature 28 °F 33 °F 15 °F (1960)
Degree Days  
Heating Degree Days 28 23  
Month to date heating degree days 216 210  
Since 1 July heating degree days 707 735  
Cooling Degree Days 0 0  
Month to date cooling degree days 0 0  
Year to date cooling degree days 1064 912  
Moisture  
Dew Point 29 °F    
Average Humidity 67    
Maximum Humidity 85    
Minimum Humidity 49    
Precipitation  
Precipitation 0.00 in 0.07 in 0.97 in (1983)
Month to date precipitation 0.50 0.90  
Year to date precipitation 33.90 33.31  
Sea Level Pressure  
Sea Level Pressure 30.34 in    
Wind  
Wind Speed 5 mph (WSW)    
Max Wind Speed 16 mph    
Max Gust Speed 22 mph    
Visibility 10 miles    
Events      
T = Trace of Precipitation, MM = Missing Value Source: NWS Daily Summary

Daily Weather History Graph

Daily Weather History Graph

Search for Another Location

Airport:

Trip Planner

Search our weather history database for the weather conditions in past years. The results will help you decide how hot, cold, wet, or windy it might be!

Date:

Astronomy

Nov. 10, 2013 Rise Set
Actual Time 6:49 AM CST 4:50 PM CST
Civil Twilight 6:19 AM CST 5:19 PM CST
Nautical Twilight 5:46 AM CST 5:53 PM CST
Astronomical Twilight 5:13 AM CST 6:25 PM CST
Moon 1:01 PM CST (11/10) No Moon Set
Length of Visible Light 10h 59m
Length of Day
10h 00m
First Quarter, 56% of the Moon is Illuminated
Nov 10
First Quarter
Nov 17
Full
Nov 25
Last Quarter
Dec 2
New
Dec 9
First Quarter

Hourly Weather History & Observations

Time (CST) Temp. Windchill Dew Point Humidity Pressure Visibility Wind Dir Wind Speed Gust Speed Precip Events Conditions
12:52 AM 39.0 °F 31.8 °F 30.0 °F 70% 30.29 in 10.0 mi NW 11.5 mph 20.7 mph N/A   Clear
1:52 AM 37.0 °F 30.4 °F 28.9 °F 73% 30.30 in 10.0 mi NW 9.2 mph - N/A   Clear
2:52 AM 35.1 °F 26.9 °F 28.0 °F 76% 30.32 in 10.0 mi NW 11.5 mph - N/A   Clear
3:52 AM 34.0 °F 26.0 °F 27.0 °F 75% 30.35 in 10.0 mi NW 10.4 mph - N/A   Clear
4:52 AM 34.0 °F 26.0 °F 26.1 °F 73% 30.36 in 10.0 mi WNW 10.4 mph - N/A   Clear
5:52 AM 32.0 °F 24.8 °F 26.1 °F 79% 30.38 in 10.0 mi WNW 8.1 mph - N/A   Clear
6:52 AM 28.9 °F 23.9 °F 25.0 °F 85% 30.42 in 10.0 mi WNW 4.6 mph - N/A   Clear
7:52 AM 32.0 °F - 26.1 °F 79% 30.43 in 10.0 mi Calm Calm - N/A   Clear
8:52 AM 36.0 °F 32.1 °F 28.0 °F 73% 30.45 in 10.0 mi WNW 4.6 mph - N/A   Clear
9:52 AM 39.0 °F 34.8 °F 28.9 °F 67% 30.45 in 10.0 mi NW 5.8 mph - N/A   Clear
10:52 AM 41.0 °F - 28.9 °F 62% 30.43 in 10.0 mi Calm Calm - N/A   Clear
11:52 AM 44.1 °F 40.8 °F 30.0 °F 58% 30.41 in 10.0 mi Variable 5.8 mph - N/A   Clear
12:52 PM 45.0 °F 43.5 °F 30.0 °F 56% 30.38 in 10.0 mi Variable 3.5 mph - N/A   Clear
1:52 PM 46.0 °F 41.4 °F 28.9 °F 51% 30.36 in 10.0 mi SSW 9.2 mph - N/A   Clear
2:52 PM 46.0 °F 43.1 °F 28.9 °F 51% 30.33 in 10.0 mi SW 5.8 mph - N/A   Overcast
3:52 PM 46.0 °F 42.5 °F 30.0 °F 54% 30.35 in 10.0 mi SW 6.9 mph - N/A   Overcast
4:52 PM 45.0 °F 43.5 °F 30.0 °F 56% 30.32 in 10.0 mi SSW 3.5 mph - N/A   Overcast
5:52 PM 43.0 °F - 30.0 °F 60% 30.32 in 10.0 mi Calm Calm - N/A   Overcast
6:52 PM 37.0 °F - 30.0 °F 76% 30.31 in 10.0 mi Calm Calm - N/A   Mostly Cloudy
7:52 PM 39.0 °F 35.7 °F 30.9 °F 73% 30.29 in 10.0 mi SSE 4.6 mph - N/A   Overcast
8:52 PM 42.1 °F 39.2 °F 30.9 °F 65% 30.27 in 10.0 mi SSE 4.6 mph - N/A   Overcast
9:52 PM 43.0 °F - 30.9 °F 62% 30.25 in 10.0 mi Calm Calm - N/A   Overcast
10:52 PM 43.0 °F 39.5 °F 32.0 °F 65% 30.23 in 10.0 mi South 5.8 mph - N/A   Overcast
11:52 PM 45.0 °F 43.5 °F 32.0 °F 60% 30.22 in 10.0 mi South 3.5 mph - N/A   Overcast